Theta_e
345 344 343 342 342 342 341 341 341 341 341 341 340 340 338 337 334 331 330 332 332 339 331 334 343 341 343 344 345 346 348 348 348 351 352 352 353 348 345 345 344 345 345 345 345 345 345 345 345 347 349 349 350 351 349 348 348 349 348 348 348 348 348 346 345 345 344 343 343 343 343 342 343 343
348 346 344 343 343 344 341 340 340 341 341 340 340 340 339 339 337 335 331 331 332 336 334 332 338 340 340 341 343 344 345 346 349 349 348 349 350 344 342 343 344 344 343 342 342 343 344 344 344 343 343 344 346 348 349 349 348 347 346 347 347 348 348 346 345 344 343 342 343 343 342 342 342 341
349 348 345 345 343 344 343 342 340 342 341 340 339 339 339 338 339 336 334 329 337 334 338 338 335 337 339 338 341 342 343 345 346 348 348 347 345 343 344 341 340 341 341 340 339 339 338 338 339 339 340 341 342 344 346 346 347 346 345 345 346 347 347 345 344 344 344 343 343 342 342 341 341 339
351 349 347 347 345 345 344 343 342 342 342 342 340 339 338 338 338 338 335 332 331 337 336 338 340 338 340 340 339 341 341 343 345 347 347 347 344 346 347 343 338 337 337 338 337 336 334 335 336 337 339 340 342 343 343 342 342 342 343 343 344 345 346 343 342 342 343 343 343 342 340 340 339 339
352 351 349 349 349 348 344 344 343 342 342 342 342 342 340 339 337 336 334 332 332 337 338 337 338 341 339 338 341 340 340 341 343 345 346 346 345 344 345 345 340 336 334 334 335 334 334 334 335 335 336 337 339 341 342 340 338 338 338 338 338 340 342 340 339 341 342 342 341 340 339 338 338 337
353 352 350 350 350 349 346 345 343 343 341 341 341 341 341 340 339 338 336 334 334 333 338 336 341 340 340 340 342 341 339 340 342 342 343 344 344 344 344 344 344 338 334 331 330 332 332 332 333 333 334 334 335 336 337 336 335 335 335 333 334 335 335 336 337 339 340 341 341 339 338 338 338 336
355 352 351 350 351 350 347 346 345 343 342 342 341 341 341 341 341 339 338 338 335 334 335 340 338 339 341 339 342 342 341 344 344 342 342 341 343 344 344 343 343 339 335 332 330 329 330 331 331 330 332 332 331 332 331 330 331 331 330 330 332 333 333 333 334 337 337 339 340 340 338 337 336 335
354 354 352 352 352 351 348 348 347 346 344 343 342 341 342 342 341 342 340 339 337 338 335 338 338 341 340 342 342 343 343 340 341 341 342 343 342 343 344 343 343 340 335 333 331 330 329 328 328 328 328 328 327 326 326 326 327 327 328 328 329 329 330 329 330 333 333 333 335 337 337 336 335 331
355 354 353 354 353 352 349 349 348 348 346 345 343 342 342 341 341 341 341 340 340 337 335 336 340 342 342 343 343 343 342 343 342 342 341 341 342 343 342 343 343 339 335 334 332 331 330 329 328 328 327 327 326 326 325 325 326 326 326 327 327 328 328 328 326 328 329 329 330 329 331 332 332 331
356 355 355 354 354 352 350 349 350 350 348 347 345 344 343 342 342 341 341 341 340 339 337 337 337 341 339 340 342 344 343 341 341 342 343 342 341 341 341 341 341 343 342 342 340 334 332 331 329 329 328 327 326 326 325 325 324 324 324 322 322 325 326 326 327 326 325 326 328 328 328 329 328 328
356 356 356 355 355 353 352 351 351 351 350 348 347 347 347 345 343 341 340 341 339 338 338 338 339 338 341 341 337 344 344 343 341 340 338 339 343 341 341 341 343 343 342 341 339 339 339 336 335 328 325 327 326 327 326 325 323 323 321 321 320 321 322 322 324 325 324 324 324 323 322 324 327 327
356 356 356 356 356 355 355 354 353 353 351 351 348 349 348 346 344 342 342 340 339 338 338 337 337 339 339 340 340 340 340 339 339 339 338 336 338 341 342 341 341 343 343 342 342 339 337 336 334 329 328 328 329 328 328 328 328 326 323 322 323 323 321 321 322 322 322 321 320 320 320 319 322 325
356 357 357 357 357 357 354 347 346 347 346 352 349 350 349 347 345 344 342 341 340 339 338 337 339 338 337 338 338 338 337 336 335 342 340 338 339 341 340 341 343 342 342 342 341 342 343 341 341 342 341 339 334 332 331 333 333 329 324 323 324 325 323 321 321 321 321 320 319 318 318 318 319 322
356 356 357 357 355 345 342 340 338 336 336 338 348 352 352 349 347 345 343 342 340 339 338 337 338 337 336 337 339 338 339 340 340 338 339 336 338 340 337 337 339 341 341 338 337 339 343 341 341 342 341 341 341 338 336 335 334 331 326 324 324 324 324 321 321 320 320 319 319 318 316 317 319 319
356 357 357 358 357 351 344 345 336 335 334 333 333 335 338 343 350 348 345 344 343 340 340 340 340 338 337 339 340 338 338 338 338 337 338 338 337 334 331 330 337 341 339 338 337 337 341 341 337 339 339 340 341 340 339 334 332 328 327 325 324 324 323 323 322 321 319 319 318 317 316 316 317 317
356 356 356 357 358 358 359 358 356 344 335 331 331 331 331 332 333 337 347 348 346 343 341 341 342 341 339 339 340 338 337 337 338 338 337 336 335 334 332 332 331 339 339 337 335 334 340 340 338 338 339 340 340 339 335 331 330 328 326 326 325 324 323 323 324 323 321 320 320 320 319 318 318 317
357 357 357 357 358 358 350 354 358 359 357 337 329 329 330 329 329 329 329 332 347 351 347 345 344 344 342 340 340 340 339 340 338 338 336 335 336 336 334 334 334 337 339 337 334 333 336 338 336 335 338 339 340 338 333 331 330 328 326 326 325 324 323 323 323 323 322 320 319 319 319 317 317 316
357 357 357 357 357 358 359 359 359 358 358 358 355 347 342 342 340 331 326 325 326 334 346 347 345 347 345 342 343 345 343 339 338 337 336 338 336 335 334 337 337 338 339 334 334 332 335 338 336 335 337 339 340 340 334 328 327 327 326 325 324 323 322 322 322 321 321 320 319 318 316 315 315 315
357 358 358 358 357 358 358 359 357 358 358 357 357 356 356 354 352 351 347 342 339 338 341 341 343 343 345 345 346 347 347 344 343 342 341 342 342 340 339 337 337 337 339 337 335 329 334 339 335 335 337 339 340 341 332 328 326 326 324 324 324 323 322 321 321 320 320 320 318 316 315 314 313 312
357 358 358 358 357 358 358 349 337 342 356 357 356 354 355 356 356 356 344 338 340 344 344 343 342 343 344 338 346 345 346 347 347 346 345 344 341 338 334 332 335 335 338 339 335 332 333 338 336 336 339 341 340 342 342 331 325 324 324 324 323 322 320 319 320 319 319 319 318 316 314 312 311 310
356 357 358 358 357 358 358 346 334 332 334 353 355 355 355 355 355 355 358 339 327 327 329 331 331 330 330 330 327 326 326 332 338 340 338 337 339 334 331 332 334 334 337 339 339 336 334 338 339 338 340 339 338 339 341 342 327 322 322 322 322 321 319 318 317 318 318 318 317 317 315 311 310 311
355 357 350 356 358 357 358 340 331 331 337 349 353 354 353 353 353 354 355 356 344 324 323 325 326 326 325 325 324 323 323 324 327 335 332 337 340 336 331 331 334 337 339 339 341 336 334 339 341 337 339 339 338 339 341 342 338 326 320 318 320 320 319 318 317 317 317 317 317 316 314 311 310 317
354 355 353 348 346 351 350 334 330 327 334 350 353 354 353 351 351 353 352 346 346 344 340 340 339 341 334 336 337 338 327 325 331 335 336 338 338 336 335 333 332 331 334 340 345 335 337 337 338 338 336 332 337 340 340 340 341 338 333 329 325 319 319 318 316 315 315 316 316 315 312 310 313 322
353 354 355 350 332 327 327 326 323 321 320 343 353 354 353 351 351 350 343 342 343 342 342 341 342 342 344 345 345 345 345 344 344 341 340 339 339 338 338 337 334 331 334 342 343 338 339 340 337 342 337 333 332 338 340 340 341 340 337 334 330 324 322 321 317 314 314 314 314 314 312 310 314 322
351 353 354 356 340 326 321 319 317 316 316 321 343 349 350 353 345 327 340 340 341 341 341 340 340 341 341 342 342 342 343 344 345 345 344 344 343 341 338 337 337 335 337 342 338 342 337 340 338 339 338 337 336 336 336 339 341 339 338 336 333 332 327 325 323 322 315 312 312 312 310 311 312 319
352 353 354 356 347 332 325 318 313 311 313 314 330 340 325 319 318 331 332 336 339 339 341 342 341 342 341 340 340 340 341 340 341 342 343 346 346 345 343 340 338 336 338 344 332 340 339 337 339 337 338 335 335 335 333 331 337 338 340 338 336 335 331 327 326 325 323 321 319 314 315 311 313 313
353 355 357 356 328 313 308 307 308 309 309 314 324 315 314 314 313 320 333 335 337 338 339 340 339 338 340 340 339 338 338 339 340 340 342 342 343 344 345 345 344 343 344 346 346 344 341 338 341 338 336 336 333 333 332 331 332 335 336 336 337 338 336 330 327 327 325 323 322 314 311 310 312 312
356 358 352 334 308 305 303 305 308 309 313 327 317 313 312 313 316 329 335 335 337 338 337 336 336 337 339 339 337 337 338 338 340 340 340 341 341 341 341 342 344 345 345 344 345 345 344 340 339 340 340 337 335 332 330 333 334 331 330 335 335 336 336 332 329 329 328 326 323 318 317 315 315 314
343 325 312 307 309 310 308 309 312 315 315 314 316 315 317 325 336 337 337 336 336 335 334 334 335 335 337 338 338 338 338 338 338 338 338 339 339 339 340 340 341 341 341 342 343 344 343 342 340 341 341 340 337 335 334 333 333 332 330 330 327 332 335 334 332 330 328 325 324 320 318 316 314 316
315 312 311 311 312 317 323 332 332 331 330 318 319 320 327 333 333 333 335 332 332 331 331 331 331 332 334 334 335 335 335 334 332 332 332 333 333 334 334 333 334 337 338 339 341 342 342 341 341 341 339 339 338 336 335 334 332 334 331 329 330 328 328 329 329 328 326 324 324 322 323 320 316 316
333 330 331 327 320 319 319 323 323 326 326 329 329 329 330 330 330 331 331 330 329 329 329 328 329 330 331 332 332 330 329 329 329 331 330 329 329 330 330 329 327 329 334 336 337 339 340 341 341 341 337 337 337 337 337 336 332 332 331 330 329 324 324 325 326 326 325 325 325 324 323 321 319 320
335 330 323 323 329 329 329 330 330 329 328 327 327 328 329 328 329 327 324 325 330 329 329 328 328 328 328 327 327 327 327 327 327 329 328 327 326 326 327 326 325 326 327 330 333 337 339 341 341 342 341 338 335 337 337 335 333 333 332 329 327 328 322 322 323 325 326 325 321 319 318 318 318 318
330 329 328 327 328 329 329 328 326 326 326 327 327 328 328 328 328 328 329 327 327 327 325 324 324 324 325 324 325 325 324 325 325 326 325 325 324 324 326 324 323 324 324 326 331 334 337 339 342 342 341 341 341 339 337 333 333 334 332 328 327 327 323 324 324 324 322 320 319 318 316 316 317 318
328 328 329 329 329 327 326 324 325 326 327 327 327 327 322 326 327 327 327 327 327 326 325 325 323 323 323 322 323 322 322 323 324 324 321 323 324 323 322 322 322 324 325 326 328 330 334 337 339 340 339 339 341 341 339 335 332 332 333 331 328 327 325 323 324 323 320 320 318 316 313 313 315 316
330 329 327 325 324 323 324 324 324 324 324 324 324 325 325 327 326 325 325 326 325 325 324 324 324 324 323 322 322 321 321 321 321 321 322 322 323 322 322 321 321 323 325 326 327 330 332 333 334 332 333 333 333 336 339 340 335 332 331 329 328 327 324 323 322 320 319 319 319 316 313 313 312 316
326 326 324 323 322 322 323 323 324 323 323 323 324 324 324 325 326 325 325 324 324 323 323 322 322 323 323 322 322 321 320 320 320 320 320 320 320 321 322 322 322 323 325 326 327 330 331 331 331 328 326 327 326 325 327 331 334 335 328 326 325 325 323 322 321 319 318 317 318 316 311 309 310 312
324 323 322 321 322 323 323 324 324 324 324 324 323 323 323 323 324 324 325 324 324 323 322 323 323 322 322 322 321 320 320 320 318 319 319 320 321 321 320 321 322 323 325 327 329 330 332 330 330 329 326 325 324 323 326 325 323 327 332 326 323 323 321 319 316 315 316 315 314 313 310 309 309 310
323 322 322 322 322 324 324 325 325 324 324 324 323 323 323 323 323 323 324 323 323 323 323 323 322 321 321 321 320 320 320 320 320 319 319 320 319 319 319 319 320 322 324 327 329 330 332 331 330 329 328 325 324 324 325 323 322 322 320 328 322 320 319 316 314 314 313 314 313 312 313 311 311 312
323 322 322 322 323 325 325 325 325 324 324 323 323 322 322 322 322 322 322 321 322 322 322 322 322 321 321 322 321 320 319 319 318 318 319 319 319 318 318 319 319 321 323 325 329 331 331 330 330 330 330 328 326 327 329 326 321 325 320 316 322 318 316 316 315 314 311 310 310 311 313 315 313 313
322 324 324 325 325 325 326 326 325 324 323 323 322 322 322 321 321 321 320 320 321 322 322 321 321 319 322 322 320 320 320 319 319 319 318 318 318 318 318 318 318 321 323 324 325 327 329 330 331 331 331 331 332 332 329 325 320 321 320 317 312 316 317 316 313 311 310 310 310 309 308 310 309 311
322 324 325 326 326 326 326 326 325 324 323 323 322 319 321 321 320 321 320 320 321 321 321 322 322 321 321 321 321 319 318 318 319 319 319 319 318 318 316 315 318 318 318 317 317 318 318 320 324 320 328 327 322 324 322 317 313 313 313 314 308 309 312 315 315 313 310 310 310 308 308 307 306 306
322 324 324 327 327 327 327 326 324 323 322 322 322 321 321 320 321 315 318 319 320 321 322 322 322 321 321 321 321 320 319 319 318 318 319 319 318 319 318 317 316 317 316 314 315 315 319 323 324 325 324 325 324 319 313 313 310 310 310 312 313 310 309 309 310 312 313 311 309 307 306 306 307 305
325 327 327 327 327 325 324 323 322 322 321 321 321 320 320 320 320 319 319 319 319 320 321 321 322 321 321 322 321 321 320 319 319 319 319 319 319 318 318 318 318 318 317 317 318 319 320 321 321 321 320 317 315 314 310 310 310 310 309 310 311 312 312 311 309 309 309 310 309 310 311 308 305 302
326 326 325 324 324 324 323 322 321 321 321 321 320 320 320 319 319 319 318 318 317 318 319 320 321 321 321 321 321 321 321 320 320 320 319 319 319 319 319 319 319 319 318 318 318 318 319 320 320 320 317 315 315 312 310 310 310 311 310 310 311 310 309 312 313 312 312 310 309 308 310 310 309 310
324 323 322 321 321 321 321 320 321 321 320 320 319 319 319 318 318 318 318 317 317 317 317 318 320 321 321 321 320 319 320 314 317 321 321 320 320 320 320 319 318 319 318 318 317 317 318 318 319 320 318 317 317 315 314 313 312 311 311 310 309 309 309 310 309 309 309 309 308 308 308 310 311 309
Wind_Speed
5 5 7 7 6 6 4 4 3 4 3 3 4 4 5 5 4 4 4 5 4 3 5 3 3 6 6 6 5 5 7 7 8 6 6 7 6 10 13 14 14 15 15 15 15 15 15 15 15 16 16 15 15 15 15 14 14 14 13 12 10 10 9 8 8 7 7 7 6 6 5 6 6 6
5 5 5 5 6 5 4 5 4 4 5 4 4 4 4 4 6 4 5 7 4 5 3 4 4 2 5 5 5 5 6 7 9 7 7 7 8 13 14 15 15 16 16 16 16 16 16 16 16 16 16 16 16 16 16 15 15 15 14 13 12 11 11 9 9 9 8 7 7 6 6 6 6 5
5 6 7 6 6 5 5 4 4 4 4 5 4 4 4 4 5 5 4 6 4 3 3 4 5 4 4 4 4 5 6 6 9 8 7 8 12 14 12 15 16 16 17 17 17 17 17 17 17 17 16 16 17 17 17 17 16 16 15 14 12 12 11 10 10 9 9 8 7 7 7 7 6 6
5 6 7 7 7 5 4 4 4 5 4 4 4 5 5 5 5 5 5 7 13 3 4 5 4 4 4 3 5 6 5 5 10 7 7 9 11 9 8 14 16 17 17 17 17 18 18 18 18 18 17 17 17 17 17 17 17 16 15 15 14 12 12 11 10 9 9 8 7 7 8 8 7 7
6 7 7 7 8 5 6 5 4 4 5 4 4 4 4 5 5 6 6 7 11 8 4 6 5 2 1 3 6 7 6 5 6 8 8 7 7 8 7 8 14 17 18 18 18 18 18 18 19 19 19 18 18 18 18 17 16 16 16 15 14 13 12 12 11 10 9 9 9 9 8 8 8 7
5 6 7 7 7 5 6 5 5 5 5 5 5 5 5 6 6 7 7 8 7 15 3 5 3 4 3 6 3 7 7 8 5 7 7 6 8 7 7 7 8 16 17 18 19 19 19 19 19 20 20 19 19 18 18 17 17 16 15 15 14 13 13 12 12 11 10 9 10 10 10 9 8 7
5 6 7 8 6 4 5 6 6 5 6 5 6 7 6 6 6 6 7 6 9 11 12 5 6 6 4 7 6 6 6 6 4 5 7 7 6 6 7 8 7 12 16 18 19 20 20 20 20 20 20 20 19 19 18 17 17 16 15 15 15 14 14 13 13 12 11 10 11 11 10 10 9 9
8 11 9 8 6 4 6 6 6 6 6 6 6 6 6 6 7 6 6 8 9 8 11 7 6 4 5 6 5 4 3 5 4 5 5 4 6 7 7 8 8 11 16 18 19 20 20 20 20 20 20 20 19 19 18 17 17 16 16 15 15 15 15 14 14 13 12 12 12 11 11 11 10 9
7 7 9 7 5 6 7 7 6 5 7 6 6 7 6 7 6 5 6 7 6 8 11 12 6 4 5 4 3 3 4 4 5 5 6 6 6 7 8 7 8 13 15 17 19 19 20 20 20 21 20 20 20 19 18 18 17 17 17 17 16 15 15 15 15 14 13 13 12 12 12 11 10 9
7 8 9 7 9 10 9 8 7 6 8 6 7 7 6 6 5 6 7 6 7 7 10 9 10 5 6 6 5 3 3 4 5 6 6 5 6 6 7 8 7 6 7 7 9 14 16 19 21 21 20 20 20 19 18 18 18 18 18 18 17 17 17 16 16 15 14 14 13 13 13 12 11 10
8 9 8 7 7 9 9 8 8 6 6 6 8 8 7 6 6 7 7 6 7 7 7 7 7 8 5 4 9 3 4 4 6 7 9 9 5 6 7 8 6 6 9 13 16 14 12 14 14 18 21 21 20 20 19 19 20 19 19 19 18 18 18 17 17 16 15 15 15 14 14 13 12 10
8 9 9 9 8 8 8 8 8 7 8 6 7 7 6 6 7 7 6 6 7 7 7 7 8 7 7 3 4 1 1 4 5 7 6 9 10 7 6 8 8 6 7 9 8 11 12 13 16 18 18 18 19 20 19 21 20 20 19 19 20 19 19 18 18 17 16 16 15 15 15 14 13 12
8 9 9 8 8 10 12 14 13 11 10 7 7 9 6 7 7 7 6 6 6 6 6 6 6 7 6 5 5 6 5 8 12 6 6 8 8 7 6 8 8 8 8 7 8 7 8 8 9 8 8 11 17 19 22 18 20 21 20 20 20 20 20 19 19 18 17 17 16 16 16 15 14 13
9 9 9 9 14 14 15 15 16 16 15 15 12 12 8 7 6 7 6 6 6 6 6 7 6 8 7 5 6 8 8 8 7 7 6 7 7 4 8 10 9 9 7 9 11 11 6 8 8 7 10 10 12 9 11 12 15 19 22 22 21 21 20 20 20 19 18 18 17 17 17 16 15 14
8 8 8 8 11 12 12 14 16 16 16 17 18 20 19 14 11 11 12 11 10 9 13 10 8 8 11 8 7 9 10 9 10 11 8 7 7 8 10 13 7 7 11 10 10 12 9 9 12 12 12 11 10 11 12 22 24 23 23 24 23 22 22 22 22 21 20 19 19 18 18 17 16 15
8 9 9 8 7 8 10 9 10 13 16 17 18 20 20 19 18 15 13 12 11 11 12 12 9 9 10 11 8 11 10 12 11 10 9 10 10 11 11 11 12 5 9 10 8 11 9 9 12 12 13 12 10 12 18 24 24 25 25 25 25 24 24 24 23 23 22 21 20 20 19 18 17 16
10 10 8 8 8 8 12 11 9 9 10 14 20 20 20 19 18 18 20 19 15 9 10 10 11 9 9 12 13 12 13 11 11 10 10 10 9 11 11 11 12 8 5 4 6 10 11 7 10 11 13 9 8 10 16 21 21 23 24 24 24 25 24 24 24 24 23 22 21 21 20 19 18 17
10 11 9 9 9 8 9 9 9 9 10 10 9 11 9 9 14 17 20 21 20 16 13 11 13 10 3 16 19 16 9 10 12 11 13 9 7 10 11 11 10 10 5 9 8 10 13 5 7 11 12 7 9 11 14 19 20 21 22 22 23 24 24 25 25 25 24 23 22 21 20 19 19 18
12 10 9 10 11 11 9 9 10 10 10 10 8 11 12 11 10 10 11 10 10 9 12 9 12 14 15 19 22 16 8 11 12 10 13 14 7 3 7 9 15 14 8 10 9 14 13 5 9 12 12 10 9 10 15 19 21 22 22 22 22 23 24 24 25 25 24 23 23 22 21 20 19 18
11 10 11 11 12 12 11 13 16 15 12 9 11 13 11 11 10 10 11 14 7 7 6 11 19 18 18 20 18 19 15 11 10 6 10 12 6 3 6 16 16 13 9 10 11 11 12 10 7 12 11 7 8 9 9 15 21 22 23 23 23 23 22 23 24 24 24 23 22 21 21 20 20 19
11 11 11 11 11 11 12 14 16 16 14 11 10 13 12 10 9 9 9 10 9 11 16 28 30 23 21 23 24 23 23 15 11 7 8 14 11 7 9 14 14 15 13 11 10 10 12 12 9 10 9 11 12 13 10 9 17 22 22 23 24 23 23 23 23 23 23 23 22 21 21 20 19 20
10 12 16 14 12 13 13 15 16 16 13 10 12 13 12 10 10 10 10 3 9 11 21 25 26 17 13 19 22 22 22 21 13 9 12 13 10 9 9 13 15 14 11 14 8 9 14 10 8 13 12 9 10 12 11 9 10 17 19 26 26 25 24 23 23 23 23 23 21 21 21 20 19 13
10 10 11 15 16 14 15 17 16 16 12 10 14 12 11 10 8 11 5 3 5 4 5 13 11 7 11 15 16 18 22 22 18 13 16 13 11 13 12 12 13 13 11 16 9 11 10 10 12 11 8 10 10 10 12 11 10 10 9 12 15 23 24 24 24 24 24 23 23 22 22 21 18 8
8 9 9 11 16 19 19 18 15 12 12 10 12 10 10 11 13 6 11 10 4 1 8 10 6 9 9 9 9 10 11 11 12 14 12 14 12 15 14 13 13 13 11 12 9 11 10 10 11 9 12 9 8 6 7 9 10 9 9 9 9 18 22 24 21 25 24 24 24 23 23 22 19 8
8 8 8 9 13 15 14 14 15 15 13 12 8 8 12 11 4 6 4 11 12 8 13 14 11 8 7 7 7 7 8 9 8 8 10 10 11 13 15 15 15 16 13 14 14 9 12 8 12 9 9 11 13 7 4 7 7 10 11 11 11 11 9 10 9 12 19 24 24 24 24 24 23 16
7 9 9 8 5 7 8 8 9 10 11 11 7 7 9 11 10 5 5 6 8 9 8 9 8 6 5 5 6 7 7 9 8 8 8 8 10 11 14 16 18 18 18 13 17 16 15 14 11 12 13 11 12 12 9 6 6 9 8 10 11 10 10 11 10 10 10 9 11 15 18 24 24 23
10 8 7 4 6 7 8 7 7 6 6 3 4 5 4 5 5 1 3 5 7 6 7 6 7 8 6 7 7 8 9 9 8 8 8 10 11 11 11 13 15 19 17 14 13 15 15 14 13 15 16 14 15 12 11 12 10 6 7 9 9 9 10 11 13 12 12 11 10 19 18 22 25 23
5 4 3 4 8 9 9 9 8 7 5 0 0 2 3 1 2 2 2 3 3 4 4 6 7 7 7 7 9 9 9 11 11 11 11 13 12 12 13 14 16 16 18 18 17 16 16 17 16 15 17 16 15 16 14 12 11 9 11 9 9 10 10 12 12 13 13 12 10 9 9 9 10 12
2 5 9 9 7 6 7 8 8 6 5 3 2 2 1 2 1 1 1 1 2 1 3 4 6 8 8 8 9 10 11 13 12 11 10 12 12 13 12 13 13 14 13 14 15 16 16 17 17 15 16 16 16 16 14 14 12 12 11 9 8 12 12 9 8 10 10 12 13 14 15 13 9 10
9 9 9 10 10 8 6 6 5 4 4 4 6 6 5 2 2 1 1 1 1 1 2 4 5 7 7 9 9 11 11 11 11 11 11 12 13 12 13 13 12 12 14 14 14 14 15 15 16 17 18 18 17 18 16 14 13 11 11 12 10 3 4 8 9 8 11 13 14 15 12 11 11 12
4 6 6 7 9 10 11 9 6 5 4 4 4 3 2 2 2 2 2 3 2 2 4 5 6 7 7 8 9 9 10 11 11 10 10 12 12 13 13 13 15 14 10 12 13 12 13 14 15 17 19 19 17 18 15 13 14 11 10 11 11 13 10 11 10 11 12 13 13 12 11 10 9 11
6 6 8 9 7 6 5 4 3 3 4 3 2 2 2 3 3 3 1 0 1 2 3 5 6 7 8 9 9 10 10 11 12 11 11 12 14 13 14 14 15 14 15 11 12 13 14 13 14 15 19 20 20 15 12 13 14 14 13 10 10 7 9 14 13 13 13 12 12 12 12 12 12 9
7 7 7 7 5 3 3 4 4 2 1 2 2 3 4 4 4 4 3 4 4 5 6 6 7 8 8 9 9 10 11 12 12 12 11 12 13 13 11 13 16 15 16 14 10 10 10 13 14 16 16 16 17 18 15 13 12 12 12 10 11 12 10 11 14 13 10 9 10 11 12 10 11 10
8 6 6 4 4 4 4 4 2 2 2 2 3 4 4 4 3 3 3 3 4 4 6 6 7 8 8 9 10 11 12 13 13 12 10 12 11 12 13 13 14 14 13 13 12 12 11 12 13 12 13 15 15 17 18 18 15 11 10 10 11 12 10 11 11 13 17 17 17 14 11 11 10 9
6 6 6 5 5 5 5 5 4 3 4 4 3 4 3 2 3 4 4 5 5 5 6 6 5 5 7 8 9 11 12 13 14 14 11 12 12 12 13 15 16 13 13 12 12 12 11 11 11 12 11 11 13 12 13 13 12 10 9 11 12 12 11 11 13 13 13 9 11 14 11 9 8 5
6 6 6 6 5 5 5 4 4 4 4 4 4 3 3 3 3 3 4 6 6 6 7 7 6 6 6 7 8 9 10 12 13 13 14 13 13 13 13 13 14 14 12 12 12 11 11 11 10 11 12 11 9 9 7 9 12 9 10 9 9 9 9 9 7 7 9 11 12 13 13 12 10 8
7 6 6 6 5 5 5 4 4 4 4 3 3 3 2 3 4 4 5 6 5 5 5 5 5 6 6 7 8 9 12 13 14 13 12 12 12 12 14 15 13 12 12 11 10 10 10 10 10 10 10 10 10 12 10 3 8 8 10 10 8 9 10 10 11 11 9 9 8 9 10 10 8 8
7 7 7 5 5 4 4 4 4 4 3 3 2 2 2 3 4 5 5 5 4 4 4 5 6 6 7 7 9 12 12 12 12 11 12 12 13 14 14 14 14 13 12 11 10 10 9 9 9 9 9 12 12 12 11 1 1 5 8 12 12 11 10 12 12 13 10 6 9 8 9 11 10 8
6 6 5 5 4 4 4 4 4 3 3 2 2 2 2 3 3 4 4 5 5 5 5 6 6 6 7 7 7 10 11 11 12 12 13 14 13 14 14 13 15 13 12 11 10 10 9 9 9 9 10 11 13 12 10 8 7 3 7 11 11 11 12 14 13 10 11 12 10 10 9 9 12 12
6 6 5 5 4 3 3 3 3 3 2 2 1 1 2 3 3 4 4 5 5 4 4 4 5 6 6 6 9 10 10 11 12 12 12 12 13 13 12 12 13 12 11 12 11 10 9 10 10 9 10 11 12 8 4 2 6 5 5 6 21 20 14 10 12 14 11 10 11 12 10 8 8 3
4 4 4 4 4 3 2 2 2 2 1 0 1 1 2 2 3 3 4 4 5 5 5 5 4 6 6 7 7 9 10 10 10 10 11 11 12 12 13 12 9 11 10 10 9 9 10 10 13 16 13 4 3 6 6 5 6 6 8 9 12 11 10 11 14 15 13 13 14 13 12 10 10 7
2 3 2 2 3 2 2 2 2 1 1 1 1 1 2 3 3 5 5 4 4 5 4 4 5 5 6 6 7 8 9 8 9 10 10 12 13 11 11 9 10 11 10 11 11 11 11 11 10 7 6 5 4 7 8 8 10 10 10 9 10 15 19 19 16 14 14 15 14 12 9 8 8 8
3 3 3 2 3 2 2 2 2 1 0 1 1 2 2 3 3 4 4 5 5 5 4 4 4 4 5 5 6 6 6 7 8 9 10 11 12 13 12 11 10 10 11 10 10 11 12 12 11 9 7 8 7 10 12 10 10 10 11 12 12 11 14 18 19 19 18 17 12 8 10 12 11 6
3 4 3 3 3 3 3 2 2 1 1 1 2 2 2 3 3 4 4 4 5 5 6 6 4 4 5 5 6 6 6 7 8 8 9 8 9 9 9 10 9 10 11 11 11 11 9 10 10 9 10 11 7 10 12 12 11 10 10 10 11 13 13 10 10 13 15 18 18 15 13 11 6 11
4 4 4 4 4 4 3 3 2 2 2 2 2 2 2 3 3 4 4 4 4 5 6 6 5 4 4 4 5 6 7 7 7 7 6 7 7 7 7 8 8 9 10 11 11 10 9 8 8 9 11 10 9 10 10 11 10 9 9 11 12 10 9 10 11 11 8 7 15 18 11 9 11 13
Wind_Direction
210 211 203 211 224 222 202 202 198 189 177 186 182 179 191 171 240 296 295 277 254 276 194 232 273 206 216 218 207 204 216 219 207 212 215 215 221 222 223 226 228 229 229 231 232 233 235 235 235 236 236 237 237 236 237 239 242 244 246 248 247 249 252 249 246 242 246 249 246 249 256 270 277 282
201 217 216 214 228 212 191 206 196 186 186 181 182 191 184 170 215 212 268 284 200 259 236 207 254 210 228 224 222 213 225 219 212 211 215 218 221 224 222 224 225 227 228 229 230 231 233 235 235 235 236 236 237 238 238 239 240 242 243 243 241 240 243 240 235 235 236 240 240 245 251 259 265 273
198 209 220 212 231 211 214 207 199 193 178 188 180 182 169 188 200 209 210 289 278 175 264 243 234 239 227 220 228 226 228 219 215 220 220 222 227 225 228 227 227 226 228 228 228 230 231 234 235 235 236 236 237 238 239 240 240 241 242 240 236 235 237 235 232 227 229 229 231 236 243 249 254 257
204 214 224 220 220 210 203 215 204 202 200 185 185 178 178 195 192 187 204 229 267 195 253 280 257 219 233 200 215 233 238 219 217 223 227 230 231 230 234 232 230 229 228 229 229 229 231 232 234 236 237 238 238 239 240 240 241 242 242 241 239 237 235 233 230 221 226 226 224 224 232 238 242 244
210 215 226 232 227 199 203 216 212 204 199 191 201 181 179 194 184 182 198 231 266 271 199 253 263 279 191 247 208 230 233 227 218 223 230 228 224 228 230 234 232 230 231 230 230 230 231 232 234 236 237 238 240 241 241 242 241 241 242 241 240 237 235 232 230 227 222 220 221 225 227 228 231 233
211 213 225 236 233 202 216 215 216 211 205 198 199 198 192 204 202 192 196 226 237 273 210 252 230 260 183 253 183 216 230 237 207 223 228 228 225 227 231 231 235 230 230 231 232 232 231 232 233 235 236 238 239 240 242 242 242 241 240 239 238 235 232 231 230 228 222 217 221 223 220 219 222 227
212 220 225 237 228 198 215 222 226 207 214 205 211 213 200 212 211 198 206 210 242 257 271 214 243 222 211 214 236 216 238 252 218 228 233 230 227 227 231 234 240 234 230 231 231 232 232 232 233 233 235 236 237 238 240 240 241 240 238 235 234 233 231 228 227 226 220 215 215 217 213 214 219 224
225 237 240 237 227 211 224 229 223 216 214 210 215 220 216 217 224 208 198 219 236 258 277 256 227 228 223 241 243 242 238 247 242 234 249 237 239 234 225 228 235 234 231 231 231 231 232 233 233 234 234 235 235 236 236 237 238 237 235 233 231 230 228 226 225 224 220 217 216 217 216 215 218 223
220 224 229 237 210 214 229 235 229 219 218 217 212 221 214 218 227 216 214 224 220 247 257 273 262 243 247 248 262 205 234 240 246 252 243 234 240 242 238 233 236 243 238 234 233 231 231 232 233 234 234 234 234 234 233 233 234 234 232 230 229 226 225 223 222 221 218 216 216 216 216 215 217 219
221 226 231 228 231 235 228 234 233 226 229 219 221 221 219 215 209 222 226 223 231 230 253 263 282 250 256 272 242 225 209 248 262 258 244 233 231 241 253 236 230 225 229 226 232 234 233 233 233 232 232 233 233 232 231 231 230 229 228 226 225 223 222 221 219 217 216 215 214 214 214 215 215 217
226 230 231 227 213 222 226 232 232 228 231 226 232 226 225 210 205 222 227 221 228 233 247 260 253 270 244 227 272 236 212 234 238 260 274 268 205 222 230 251 233 223 238 239 237 233 223 227 232 232 232 231 229 230 228 227 227 224 223 222 220 219 219 218 217 215 214 213 212 212 212 213 213 210
230 231 233 229 219 218 224 228 234 214 230 224 236 233 213 208 209 223 227 226 230 237 241 246 268 264 271 239 242 303 250 265 253 223 234 263 265 241 228 231 245 234 222 242 238 234 232 233 234 236 235 231 230 231 230 228 225 221 219 219 218 216 216 215 215 214 212 211 210 211 210 210 210 210
231 234 236 234 229 226 229 227 230 227 222 222 237 245 211 212 212 219 221 228 235 242 243 257 258 266 264 256 269 258 227 232 253 253 188 240 252 262 258 250 224 229 229 233 239 234 204 215 218 217 219 220 222 227 224 226 220 218 215 215 216 215 213 214 214 213 212 209 209 209 209 209 208 207
229 233 233 237 236 232 230 230 229 231 227 225 230 248 233 220 212 216 222 222 229 240 246 240 248 262 259 245 239 253 243 245 252 245 218 234 248 246 253 264 242 221 211 234 242 242 203 204 225 218 226 224 205 211 205 214 210 212 211 211 212 211 210 211 212 212 211 208 206 206 207 207 206 203
238 236 235 240 240 234 233 234 234 233 229 228 233 240 243 236 229 244 247 247 243 247 260 258 254 258 271 263 251 253 263 252 243 248 238 230 239 241 255 269 270 193 207 220 233 246 222 201 222 226 227 222 204 209 212 214 213 211 207 207 207 208 208 208 209 209 209 206 204 204 204 205 204 201
241 241 242 238 238 236 235 232 230 229 231 231 232 237 241 241 236 231 231 240 245 244 253 262 256 266 270 271 254 254 251 255 252 242 239 231 227 239 238 245 254 228 179 211 225 248 233 204 221 234 234 225 219 213 217 215 212 210 209 205 204 204 205 206 207 206 206 205 203 202 202 202 201 198
240 243 244 247 241 243 236 236 237 242 237 224 228 234 238 241 237 236 236 234 237 246 254 261 267 249 267 274 262 242 246 249 260 257 248 239 233 246 255 259 265 276 199 219 244 259 256 197 225 241 246 239 239 238 228 224 216 214 212 208 203 204 204 205 205 205 204 202 201 200 199 197 197 196
238 239 241 245 249 242 239 237 233 235 238 244 232 232 230 235 240 235 235 235 235 237 245 254 261 261 191 263 261 251 241 251 253 261 266 264 241 253 255 275 285 272 177 218 238 257 259 204 214 236 248 223 225 231 228 224 222 219 218 214 209 205 204 204 204 204 202 200 198 197 195 194 193 192
238 238 236 240 248 250 243 237 233 234 238 240 238 247 250 240 238 232 234 216 203 201 233 253 263 262 237 243 262 272 251 245 250 253 267 273 265 276 7 309 260 258 225 223 227 251 262 219 220 238 244 231 224 229 227 216 215 217 218 218 215 211 206 204 204 204 203 199 195 194 193 191 190 189
239 239 237 241 245 249 247 243 231 231 240 242 245 252 248 251 251 248 237 241 211 178 181 219 233 233 243 247 251 260 260 255 258 262 286 288 281 152 209 255 270 272 253 217 232 253 260 249 226 250 247 236 231 228 224 215 212 213 214 214 216 215 211 207 205 205 203 199 194 191 189 188 187 186
240 238 237 237 244 246 248 245 236 233 228 244 245 253 253 250 256 263 261 244 220 174 190 226 233 229 234 248 251 258 267 271 278 294 271 267 259 212 227 257 265 263 264 250 226 240 255 248 241 252 246 239 238 242 225 216 208 211 213 213 213 212 211 208 206 206 204 200 194 189 187 185 184 185
240 239 236 237 241 245 248 244 236 234 226 233 245 257 260 256 251 259 262 298 83 194 218 234 245 245 252 267 274 275 272 263 249 234 244 250 257 245 216 241 255 265 268 263 212 225 238 242 222 249 251 248 236 238 234 217 204 202 211 214 212 209 207 206 206 204 203 199 194 190 183 182 181 178
238 241 239 235 238 242 246 245 239 234 224 237 252 254 261 262 251 252 227 91 255 277 270 259 267 277 232 237 248 255 251 251 242 226 238 251 244 250 244 236 253 267 256 261 216 230 238 231 234 229 253 247 233 225 233 223 210 202 196 208 213 211 206 204 203 203 201 196 193 188 182 180 173 168
233 234 242 238 235 237 243 249 251 251 228 230 252 255 257 266 273 48 91 115 116 204 256 269 259 246 244 241 240 245 251 246 236 235 225 234 239 248 251 246 238 240 244 256 233 230 259 248 255 213 227 250 257 199 205 213 209 198 192 193 197 211 209 205 204 201 197 196 191 186 182 177 175 157
237 236 234 240 237 235 240 243 246 247 240 232 241 248 256 256 345 46 123 133 150 221 245 256 258 254 254 254 255 265 264 262 256 242 230 228 226 237 246 249 250 247 246 245 256 252 262 251 259 249 240 234 254 254 215 228 209 212 200 191 196 199 183 198 190 191 201 195 191 185 181 177 178 171
231 238 237 245 234 218 220 224 232 235 238 235 232 245 270 317 330 2 114 190 204 232 246 256 269 276 280 277 280 281 284 284 282 280 275 252 241 233 235 240 250 257 255 240 238 246 255 259 241 253 249 244 248 240 246 228 217 218 201 201 203 196 172 183 181 180 168 173 187 186 181 178 178 180
234 237 241 222 129 130 128 140 156 179 202 187 220 250 282 271 329 20 156 166 204 228 251 269 276 289 292 300 295 287 283 281 281 286 278 276 268 258 249 241 243 253 261 264 247 243 243 252 244 242 249 241 249 243 233 237 234 193 219 214 210 204 202 194 188 189 182 178 181 181 175 178 181 184
230 206 162 128 135 137 144 154 162 162 165 230 38 291 275 248 181 174 145 153 172 210 239 259 285 289 293 296 295 294 297 298 302 296 289 285 279 272 269 264 259 256 260 260 257 252 248 251 249 240 244 247 245 242 243 232 232 203 209 215 212 204 206 202 194 189 184 176 155 151 160 171 188 179
106 112 125 132 145 147 135 129 126 118 118 121 144 130 125 163 133 133 104 141 175 180 228 252 270 285 288 293 294 301 302 302 300 295 293 288 289 285 279 274 267 268 263 262 257 255 254 253 255 251 245 242 244 244 238 237 218 219 208 192 203 213 209 192 192 197 181 173 172 171 178 177 159 175
127 141 137 130 118 105 104 100 90 97 100 91 75 54 50 59 66 76 97 93 136 323 286 277 279 287 297 298 303 304 303 302 298 306 306 305 302 300 298 297 284 267 270 270 264 259 254 254 256 255 255 248 244 246 239 238 233 224 209 206 203 69 148 174 180 177 178 179 179 178 180 169 162 161
127 117 115 106 102 99 94 92 95 94 106 86 59 50 53 59 55 69 46 32 14 349 324 310 298 296 295 296 301 301 309 303 299 304 304 299 296 300 297 294 293 288 275 271 270 261 258 255 254 253 255 254 248 243 241 235 238 224 216 209 184 199 186 171 171 181 181 186 186 170 162 161 160 175
123 111 106 100 97 97 95 109 92 64 52 68 80 78 77 57 56 51 36 101 66 338 315 309 307 310 314 313 308 305 302 299 298 303 302 300 299 300 302 297 292 293 293 286 279 272 265 263 261 256 254 253 253 249 239 233 231 227 227 206 199 195 139 177 181 190 189 177 161 165 162 159 162 172
104 103 101 106 110 117 124 82 66 67 109 89 98 68 42 39 41 34 23 18 7 354 343 337 332 324 319 311 308 307 304 302 302 304 303 301 301 301 291 287 293 296 300 299 287 271 261 265 258 260 263 261 256 252 243 235 227 221 217 198 190 196 182 181 182 178 158 162 171 157 161 167 167 171
121 119 117 115 110 98 88 99 97 76 46 29 30 39 31 23 25 15 15 8 357 347 344 333 329 323 319 320 321 316 311 310 308 306 300 302 305 299 301 295 293 294 291 290 293 289 283 276 274 267 263 259 256 251 244 235 227 210 209 197 193 201 190 179 182 172 173 176 170 167 166 167 169 172
114 122 109 106 109 116 116 113 104 80 66 46 29 22 14 14 10 5 5 4 350 345 336 326 311 306 326 323 315 315 317 318 317 320 321 316 310 306 305 301 300 299 295 292 290 290 286 286 288 288 278 271 268 261 235 231 229 212 196 198 192 194 185 182 177 173 175 168 165 160 160 157 159 147
106 113 116 118 117 122 114 112 104 91 79 61 44 20 6 359 4 2 2 353 341 333 332 332 318 322 324 319 313 315 317 322 325 325 323 322 316 311 305 299 296 297 295 290 291 286 286 285 285 286 287 287 283 286 277 223 214 209 194 196 191 184 174 160 145 149 168 172 173 157 159 163 161 157
107 103 109 119 126 120 118 120 111 93 79 71 62 35 9 340 344 354 340 324 315 315 320 320 325 326 315 316 313 318 331 333 330 326 318 318 316 314 313 310 306 302 299 293 286 283 283 284 281 279 284 282 275 275 272 42 229 217 185 183 174 177 158 150 144 158 173 156 142 135 132 134 148 168
110 115 114 109 116 121 121 118 106 95 86 70 59 34 351 333 333 328 321 320 317 315 331 343 333 321 322 322 336 337 332 330 326 322 322 320 323 324 320 314 312 313 309 303 293 286 282 283 285 282 282 285 281 275 275 202 224 246 210 172 173 170 158 149 157 161 151 144 136 127 127 136 149 160
97 97 102 114 120 124 112 109 104 96 82 66 45 9 340 333 325 319 325 331 336 339 346 333 324 323 322 331 327 335 334 334 335 331 327 327 326 324 318 316 315 313 310 311 308 299 293 286 284 284 278 276 274 269 266 250 220 154 191 186 152 147 166 167 157 137 136 126 109 96 84 85 74 81
97 103 111 108 110 109 107 103 96 91 85 72 36 332 313 307 311 316 323 330 337 337 324 308 310 325 328 330 340 341 338 336 335 331 329 325 327 325 324 319 313 314 315 318 322 323 314 311 308 304 293 276 276 282 284 87 69 89 84 120 160 162 155 143 140 140 128 121 116 109 107 95 101 96
107 108 99 101 108 109 100 93 86 93 105 193 255 248 277 290 297 303 312 318 328 329 316 320 329 339 334 333 336 340 339 336 334 333 331 331 329 332 328 329 344 351 355 355 344 334 327 320 307 305 297 313 104 107 99 99 94 77 60 46 39 68 115 137 147 145 133 136 125 124 124 132 133 133
110 124 146 137 105 94 86 80 79 111 198 254 284 307 301 295 289 292 303 321 318 313 309 324 338 334 333 331 338 341 343 334 338 338 333 336 339 335 332 341 355 356 5 3 352 341 333 329 329 344 3 355 0 59 50 58 78 70 67 61 62 63 68 74 81 98 124 129 123 110 94 95 108 101
109 122 118 106 81 78 64 67 75 75 320 325 323 328 315 309 317 331 344 333 327 329 334 327 333 335 329 331 336 335 333 333 336 339 338 342 342 345 345 354 0 6 8 3 355 356 355 354 354 3 33 51 62 79 85 82 81 89 86 88 85 77 62 60 69 68 59 57 59 102 147 154 141 129
87 76 67 67 65 60 56 57 51 42 1 360 332 321 320 321 332 338 335 328 330 335 333 332 323 333 335 337 337 337 344 341 330 332 336 337 333 334 337 340 342 6 16 14 17 17 8 12 17 24 39 41 42 80 96 98 93 90 95 94 98 94 93 87 73 56 48 40 33 36 51 58 63 164
68 64 64 55 61 54 54 49 41 36 29 21 8 349 338 335 334 331 327 327 327 331 330 328 322 320 337 341 348 344 339 335 331 325 322 325 326 329 332 340 341 351 10 15 26 24 18 25 27 30 50 47 46 64 67 78 86 90 83 89 87 85 90 99 99 94 76 52 18 18 19 60 90 106